Location: Dimsdale
(55.1333°N, 118.9833°W)
Time: 00:58:59
(UTC+00:00)

MOZHAYETS 4 - Pass Details

Date: 07 December 2023
Orbit: 654 x 672 km, 98.3° (Epoch: 26 February)

Event Time Altitude Azimuth Distance (km) Brightness Sun altitude
Rises 01:02:55 0° 11° (N) 3,038 10.8 -12.3°
Reaches altitude 10° 01:05:16 10° 4° (N) 2,121 10.1 -12.6°
Maximum altitude 01:09:32 38° 297° (WNW) 1,038 9.1 -13.2°
Drops below altitude 10° 01:13:47 10° 230° (SW) 2,110 11.5 -13.8°
Sets 01:16:07 0° 222° (SW) 3,019 12.2 -14.1°
